Content
SEND FEEDBACK

Daily
Averages
Monthly
Summary
United Kingdom

SAFFRON WALDEN, ENGLAND


Home > Europe > United Kingdom > England
Elevation: 326 feet     Latitude: 51 58N     Longitude: 000 31E

WEATHER
 
SELECT A DAY
Number of Records: 297,682;   Date Range: 7/1/96 - 9/21/14
 
SHARE

PRINT THIS DATA

[ ← Previous Day ]
WEATHER ALMANAC - JUNE 7, 2014
[ Next Day → ]
[ °C ]   °F
Weather ElementAverageHighLow
Temperature63 °F69.8 °F (3:50 pm)55.4 °F (12:50 am)
Dewpoint55.7 °F62.6 °F (11:20 am)50 °F (12:50 am)
Humidity77.9 %94 % (5:50 am)56 % (6:20 pm)
Barometer29.89 in30.01 in (10:20 pm)29.80 in (7:50 am)
Wind Speed9.2 mph13.8 mph (4:50 am)
Wind Gust21.9 mph (6:20 am)
Weather ElementAverage
Visibility6 mi
Wind DirectionS (178.1 °)

Weather ElementTotal
Precipitation---
Heating Degree Days2.4 (Base 65)
Growing Degree Days12.6 (Base 50)
Averaged from 47 records on June 7, 2014
WEATHER CONDITIONS BREAKOUT
WIND DIRECTION BREAKOUT
WEATHER BY HOUR - JUNE 7, 2014
[ °C ]   °F
Local TimeTemperatureDewpointHumidityBarometerVisibilityWind DirectionWind SpeedGust SpeedPrecipitationEventsConditions
12:50 AM55.4 °F50.0 °F82 %29.89 inEast (90°)11.5 mphClear
1:20 AM55.4 °F50.0 °F82 %29.89 inEast (90°)11.5 mphClear
1:50 AM55.4 °F50.0 °F82 %29.89 inEast (80°)11.5 mphClear
2:20 AM55.4 °F51.8 °F88 %29.86 inEast (80°)12.7 mphClear
2:50 AM55.4 °F51.8 °F88 %29.86 inEast (90°)12.7 mphClear
3:20 AM55.4 °F51.8 °F88 %29.86 inEast (80°)12.7 mphClear
3:50 AM55.4 °F51.8 °F88 %29.86 inEast (90°)11.5 mphClear
4:20 AM57.2 °F53.6 °F88 %29.83 inEast (80°)12.7 mphClear
4:50 AM57.2 °F53.6 °F88 %29.83 inEast (80°)13.8 mphClear
5:20 AM57.2 °F53.6 °F88 %29.83 in6.2 miEast (80°)11.5 mph
5:50 AM57.2 °F55.4 °F94 %29.83 inEast (90°)10.4 mphClear
6:20 AM59.0 °F55.4 °F88 %29.83 inEast (100°)10.4 mph21.9 mphClear
6:50 AM60.8 °F55.4 °F82 %29.83 inESE (120°)9.2 mphClear
7:20 AM60.8 °F57.2 °F88 %29.83 inEast (100°)9.2 mphClear
7:50 AM60.8 °F57.2 °F88 %29.80 in6.2 miEast (90°)12.7 mphRainLight Rain
8:20 AM62.6 °F57.2 °F82 %29.83 in6.2 miESE (110°)11.5 mphPartly Cloudy
8:50 AM64.4 °F59.0 °F83 %29.80 in6.2 miEast (90°)10.4 mphPartly Cloudy
9:20 AM64.4 °F59.0 °F83 %29.80 inEast (90°)13.8 mphClear
9:50 AM66.2 °F59.0 °F78 %29.80 in6.2 miESE (120°)11.5 mphPartly Cloudy
10:20 AM68.0 °F60.8 °F78 %29.83 in6.2 miSSE (150°)9.2 mphPartly Cloudy
10:50 AM62.6 °F60.8 °F94 %29.89 in3.7 miSW (220°)13.8 mphRain-ThunderstormLight Thunderstorms and Rain
11:20 AM64.4 °F62.6 °F94 %29.89 in4.3 miSW (230°)4.6 mphRainLight Rain
11:50 AM66.2 °F62.6 °F88 %29.86 inSW (220°)5.8 mphClear
12:20 PM66.2 °F62.6 °F88 %29.86 in6.2 miSSW (210°)8.1 mphScattered Clouds
12:50 PM68.0 °F62.6 °F83 %29.86 in6.2 miSSW (210°)10.4 mphScattered Clouds
1:20 PM68.0 °F62.6 °F83 %29.86 in6.2 miSW (230°)9.2 mphScattered Clouds
1:50 PM66.2 °F60.8 °F83 %29.89 in6.2 miSW (230°)11.5 mphMostly Cloudy
2:20 PM68.0 °F62.6 °F83 %29.89 in6.2 miWest (270°)6.9 mphScattered Clouds
2:50 PM68.0 °F60.8 °F78 %29.89 in6.2 miWest (270°)10.4 mphMostly Cloudy
3:20 PM68.0 °F59.0 °F73 %29.89 in6.2 miWest (270°)6.9 mphMostly Cloudy
3:50 PM69.8 °F59.0 °F68 %29.89 in6.2 miWest (260°)6.9 mphScattered Clouds
4:20 PM69.8 °F57.2 °F64 %29.92 in6.2 miWSW (250°)10.4 mphScattered Clouds
4:50 PM69.8 °F55.4 °F60 %29.92 in6.2 miWSW (240°)10.4 mphScattered Clouds
5:20 PM68.0 °F55.4 °F64 %29.92 in6.2 miSW (230°)9.2 mphMostly Cloudy
5:50 PM69.8 °F55.4 °F60 %29.92 in6.2 miWSW (240°)9.2 mphScattered Clouds
6:20 PM69.8 °F53.6 °F56 %29.92 in6.2 miWSW (250°)8.1 mphScattered Clouds
6:50 PM69.8 °F53.6 °F56 %29.95 in6.2 miWSW (240°)10.4 mphScattered Clouds
7:20 PM68.0 °F53.6 °F60 %29.95 in6.2 miWSW (250°)6.9 mphScattered Clouds
7:50 PM69.8 °F53.6 °F56 %29.95 in6.2 miWest (270°)5.8 mphScattered Clouds
8:20 PM66.2 °F53.6 °F64 %29.95 in6.2 miWest (260°)4.6 mphPartly Cloudy
8:50 PM64.4 °F53.6 °F68 %29.98 in6.2 miWSW (250°)3.5 mphPartly Cloudy
9:20 PM62.6 °F51.8 °F68 %29.98 in6.2 miWSW (250°)3.5 mphPartly Cloudy
9:50 PM62.6 °F50.0 °F63 %29.98 in6.2 miSW (220°)3.5 mphPartly Cloudy
10:20 PM59.0 °F50.0 °F72 %30.01 inSSW (200°)3.5 mphClear
10:50 PM59.0 °F51.8 °F77 %30.01 in6.2 miSW (220°)8.1 mphPartly Cloudy
11:20 PM57.2 °F50.0 °F77 %30.01 inWSW (240°)5.8 mphClear
11:50 PM57.2 °F50.0 °F77 %30.01 inWSW (240°)3.5 mphClear
Hourly data recorded from EGSS, located miles away from Saffron Walden, England







STORIES FROM OUR PARTNERS